Location: *
(34.8620°S, 39.3380°E)
Time: 21:12:45
(UTC+00:00)

Lacrosse 4 Rocket - Pass Details

Date: 04 December 2021
Orbit: 535 x 620 km, 68.0° (Epoch: 24 January)

Event Time Altitude Azimuth Distance (km) Brightness Sun altitude
Rises 17:46:13 0° 201° (SSW) 2,736 6.0 -14.7°
Reaches altitude 10° 17:48:29 10° 196° (SSW) 1,829 4.9 -15.0°
Maximum altitude 17:52:29 55° 117° (ESE) 661 1.5 -15.6°
Enters shadow 17:54:09 31° 54° (NE) 966 2.0 -15.9°
